Glasgow, MT

6:51 PM MDT on May 21, 2018 (GMT -0600)
Wokal-Glasgow International

Weather History for KGGW - October, 2011

Change the Weather History Date:

Tuesday, October 4, 2011

  Actual Average Record
Temperature  
Mean Temperature 72 °F 50 °F  
Max Temperature 88 °F 63 °F 96 °F (1943)
Min Temperature 56 °F 37 °F 11 °F (1898)
Degree Days  
Heating Degree Days 0 15  
Month to date heating degree days 0 58  
Since 1 July heating degree days 139 352  
Cooling Degree Days 7 0  
Month to date cooling degree days 15 0  
Year to date cooling degree days 557 532  
Growing Degree Days 21 (Base 50)    
Moisture  
Dew Point 46 °F    
Average Humidity 49    
Maximum Humidity 77    
Minimum Humidity 20    
Precipitation  
Precipitation 0.00 in 0.03 in 1.29 in (1927)
Month to date precipitation 0.00 0.13  
Year to date precipitation 21.16 10.24  
Snow  
Snow 0.00 in 0.00 in 0.50 in (1916)
Month to date snowfall 0.0 0.1  
Since 1 July snowfall 0.0 0.3  
Since 1 September snowfall 0.0 0.3  
Snow Depth 0.00 in    
Sea Level Pressure  
Sea Level Pressure 29.65 in    
Wind  
Wind Speed 15 mph (ESE)    
Max Wind Speed 26 mph    
Max Gust Speed 31 mph    
Visibility 10 miles    
Events      
T = Trace of Precipitation, MM = Missing Value Source: NWS Daily Summary

Daily Weather History Graph

Daily Weather History Graph

Search for Another Location

Airport or City:

Astronomy

Oct. 04, 2011 Rise Set
Actual Time 7:09 AM MDT 6:39 PM MDT
Civil Twilight 6:38 AM MDT 7:10 PM MDT
Nautical Twilight 6:02 AM MDT 7:46 PM MDT
Astronomical Twilight 5:25 AM MDT 8:23 PM MDT
Moon 3:12 PM MDT (10/4) No Moon Set
Length of Visible Light 12h 32m
Length of Day
11h 30m
First Quarter, 56% of the Moon is Illuminated
Oct 4
First Quarter
Oct 11
Full
Oct 19
Last Quarter
Oct 26
New
Nov 2
First Quarter

Hourly Weather History & Observations

Time (MDT) Temp. Dew Point Humidity Pressure Visibility Wind Dir Wind Speed Gust Speed Precip Events Conditions
12:53 AM 62.1 °F 48.9 °F 62% 29.83 in 10.0 mi East 17.3 mph - N/A   Clear
1:53 AM 60.1 °F 48.9 °F 67% 29.81 in 10.0 mi East 20.7 mph - N/A   Clear
2:53 AM 59.0 °F 48.9 °F 69% 29.79 in 10.0 mi East 18.4 mph - N/A   Clear
3:53 AM 57.9 °F 48.9 °F 72% 29.77 in 10.0 mi East 17.3 mph - N/A   Clear
4:53 AM 57.2 °F 48.2 °F 72% 29.77 in 10.0 mi East 20.7 mph - N/A   Clear
5:53 AM 57.0 °F 48.0 °F 72% 29.74 in 10.0 mi East 19.6 mph - N/A   Clear
6:53 AM 55.9 °F 48.0 °F 75% 29.74 in 10.0 mi ESE 15.0 mph - N/A   Clear
7:53 AM 55.9 °F 48.0 °F 75% 29.73 in 10.0 mi ESE 21.9 mph - N/A   Clear
8:53 AM 57.9 °F 48.0 °F 70% 29.74 in 10.0 mi ESE 24.2 mph 31.1 mph N/A   Clear
9:53 AM 63.0 °F 48.0 °F 58% 29.71 in 10.0 mi East 20.7 mph - N/A   Clear
10:53 AM 66.9 °F 48.0 °F 51% 29.68 in 10.0 mi ESE 21.9 mph - 0.01 in   Clear
11:53 AM 73.0 °F 48.0 °F 41% 29.65 in 10.0 mi ESE 19.6 mph - N/A   Clear
12:53 PM 80.1 °F 46.9 °F 31% 29.62 in 10.0 mi ESE 15.0 mph - N/A   Clear
1:53 PM 84.0 °F 45.0 °F 25% 29.58 in 10.0 mi SSE 15.0 mph 20.7 mph N/A   Clear
2:53 PM 84.0 °F 41.0 °F 22% 29.57 in 10.0 mi SE 15.0 mph - N/A   Clear
3:53 PM 87.1 °F 41.0 °F 20% 29.55 in 10.0 mi South 12.7 mph - N/A   Clear
4:53 PM 84.9 °F 42.1 °F 22% 29.54 in 10.0 mi SE 12.7 mph - N/A   Clear
5:53 PM 80.1 °F 44.1 °F 28% 29.54 in 10.0 mi SE 10.4 mph - N/A   Clear
6:53 PM 71.6 °F 44.6 °F 38% 29.56 in 10.0 mi East 9.2 mph - N/A   Clear
7:53 PM 66.9 °F 43.0 °F 42% 29.55 in 10.0 mi ESE 6.9 mph - N/A   Clear
8:53 PM 64.0 °F 43.0 °F 46% 29.55 in 10.0 mi ESE 8.1 mph - N/A   Clear
9:53 PM 64.9 °F 43.0 °F 45% 29.53 in 10.0 mi East 10.4 mph - N/A   Clear
10:53 PM 66.9 °F 43.0 °F 42% 29.51 in 10.0 mi East 12.7 mph - N/A   Clear
11:53 PM 61.0 °F 43.0 °F 52% 29.52 in 10.0 mi West 5.8 mph - N/A   Clear